Theta_e
331 330 330 331 330 330 328 328 329 328 327 327 327 326 327 327 326 326 325 324 324 323
330 330 329 330 331 331 330 330 330 329 327 327 327 327 327 326 324 324 323 322 321 320
330 330 330 330 329 330 330 330 329 328 328 327 327 327 327 325 324 321 321 320 319 318
329 330 330 329 329 330 330 330 329 328 328 327 327 327 325 323 322 319 318 318 317 317
327 328 329 329 329 329 328 329 329 328 327 326 326 326 324 322 319 318 316 317 317 316
324 326 327 327 328 328 329 329 328 327 325 325 325 324 324 323 321 318 318 317 316 316
322 324 325 327 328 328 328 327 327 326 324 324 323 322 321 321 320 319 317 315 314 310
320 321 322 323 324 325 325 324 324 322 322 321 320 318 318 315 317 312 307 305 305 304
318 318 318 319 318 318 319 319 318 316 316 314 305 300 302 307 307 304 302 300 299 299
311 311 312 308 304 304 305 304 304 305 304 303 301 297 298 298 303 302 302 300 298 295
303 303 299 300 301 298 298 300 298 298 299 298 296 296 295 294 300 299 299 298 296 293
302 300 297 297 297 298 296 294 296 294 294 294 292 294 294 295 294 292 291 291 292 291
299 298 297 297 294 290 295 292 292 290 292 290 292 293 293 294 290 288 288 287 287 286
295 295 297 295 291 292 291 290 290 289 289 289 290 291 292 292 289 289 287 287 286 286
Wind_Speed
22 14 14 16 12 11 12 12 14 15 15 16 15 14 13 11 11 12 12 15 12 9
20 21 17 18 15 13 14 11 14 15 15 15 15 15 14 11 12 12 12 11 11 9
19 20 18 16 18 17 15 15 13 14 15 15 14 14 14 12 11 11 9 8 10 10
18 19 18 17 18 17 15 15 16 15 14 14 14 14 14 15 11 11 11 11 11 12
18 18 18 19 18 16 16 16 16 15 14 14 14 14 16 15 11 12 12 12 11 11
18 18 19 19 17 16 16 16 15 14 15 15 15 14 14 14 14 14 12 10 10 10
16 18 17 16 17 17 16 15 15 15 15 14 13 12 12 12 12 11 8 7 7 6
15 14 14 14 14 13 14 14 14 14 13 11 11 9 10 8 9 7 6 6 5 5
13 11 11 11 11 12 12 13 11 11 11 10 5 10 12 10 7 7 8 7 5 5
8 10 11 8 7 7 7 5 6 7 8 7 6 11 12 12 7 8 7 8 7 5
10 10 7 9 10 7 7 9 7 7 8 8 6 11 12 11 8 6 6 7 7 7
13 12 9 10 11 9 8 6 8 7 9 10 8 13 13 10 6 6 6 6 5 6
10 12 13 12 10 4 6 8 7 7 8 9 10 13 15 10 6 7 5 4 5 7
11 11 10 9 5 8 7 8 8 9 7 8 9 10 14 13 7 6 6 6 5 3
Wind_Direction
211 213 214 214 209 211 208 210 205 203 207 210 210 213 214 218 218 220 223 228 228 231
208 212 213 215 213 212 212 214 210 205 204 206 211 212 213 215 219 224 229 233 233 237
211 212 213 214 213 215 213 210 206 204 206 205 211 210 211 216 218 216 223 222 223 228
213 212 211 214 216 215 212 207 209 205 204 205 208 208 210 218 211 213 219 216 219 227
214 211 210 214 214 210 211 208 208 202 204 206 209 207 210 214 204 210 214 218 213 223
213 210 211 211 210 207 207 206 206 203 204 206 208 206 205 208 211 215 217 212 213 213
218 217 214 209 207 205 204 204 202 203 206 206 205 205 202 204 208 213 203 201 198 189
220 219 218 212 207 203 202 203 201 201 205 204 202 197 194 184 195 180 170 168 163 159
217 211 208 204 199 197 199 198 194 194 191 189 173 164 169 168 169 162 165 161 158 147
211 203 198 180 165 171 170 148 163 164 161 171 159 162 159 153 155 155 161 158 163 156
201 199 179 171 179 169 161 176 170 165 160 147 147 151 147 147 140 147 150 156 158 159
203 202 182 190 186 178 160 163 167 157 150 151 157 164 154 148 135 135 142 133 143 143
186 188 192 189 181 149 162 155 146 148 159 153 154 169 164 151 136 146 141 122 125 150
185 184 185 166 155 159 150 142 151 154 152 153 158 167 161 147 151 154 149 151 152 151